Change the Weather History Date:

Thursday, May 8, 2014

  Actual Average Record
Temperature  
Mean Temperature 76 °F 59 °F  
Max Temperature 85 °F 69 °F 89 °F (1926)
Min Temperature 66 °F 49 °F 32 °F (1976)
Degree Days  
Heating Degree Days 0 7  
Month to date heating degree days 58 62  
Since 1 July heating degree days 5866 5513  
Cooling Degree Days 11 1  
Month to date cooling degree days 15 8  
Year to date cooling degree days 23 18  
Growing Degree Days 25 (Base 50)    
Moisture  
Dew Point 57 °F    
Average Humidity 54    
Maximum Humidity 68    
Minimum Humidity 40    
Precipitation  
Precipitation 0.00 in 0.14 in 1.20 in (1969)
Month to date precipitation 0.02 1.19  
Year to date precipitation 13.42 13.57  
Snow  
Snow 0.00 in 0.00 in 0.00 in ()
Month to date snowfall 0.0 0.0  
Since 1 July snowfall 53.6 23.3  
Snow Depth 0.00 in    
Sea Level Pressure  
Sea Level Pressure 30.00 in    
Wind  
Wind Speed 14 mph (SSW)    
Max Wind Speed 24 mph    
Max Gust Speed 32 mph    
Visibility 10 miles    
Events      
T = Trace of Precipitation, MM = Missing Value Source: NWS Daily Summary

Daily Weather History Graph

Daily Weather History Graph

Search for Another Location

Airport or City:

Trip Planner

Search our weather history database for the weather conditions in past years. The results will help you decide how hot, cold, wet, or windy it might be!

Date:

Astronomy

May. 08, 2014 Rise Set
Actual Time 6:28 AM EDT 8:38 PM EDT
Civil Twilight 5:59 AM EDT 9:08 PM EDT
Nautical Twilight 5:22 AM EDT 9:45 PM EDT
Astronomical Twilight 4:42 AM EDT 10:25 PM EDT
Moon 2:38 PM EDT (5/8) 2:59 AM EDT (5/8)
Length of Visible Light 15h 09m
Length of Day
14h 09m
Waxing Gibbous, 64% of the Moon is Illuminated
May 8
Waxing Gibbous
May 14
Full
May 21
Last Quarter
May 28
New
Jun 5
First Quarter

Hourly Weather History & Observations

Time (EDT) Temp. Heat Index Dew Point Humidity Pressure Visibility Wind Dir Wind Speed Gust Speed Precip Events Conditions
12:56 AM 72.0 °F - 53.1 °F 51% 29.95 in 10.0 mi SSW 10.4 mph - N/A   Mostly Cloudy
1:56 AM 71.1 °F - 53.1 °F 53% 29.94 in 10.0 mi SSW 10.4 mph - N/A   Scattered Clouds
2:56 AM 69.1 °F - 53.1 °F 57% 29.96 in 10.0 mi SSW 9.2 mph - N/A   Partly Cloudy
3:56 AM 68.0 °F - 54.0 °F 61% 29.97 in 10.0 mi SSW 9.2 mph - N/A   Partly Cloudy
4:56 AM 66.9 °F - 54.0 °F 63% 29.99 in 10.0 mi SSW 11.5 mph - N/A   Partly Cloudy
5:56 AM 66.9 °F - 54.0 °F 63% 29.99 in 10.0 mi SSW 10.4 mph - N/A   Partly Cloudy
6:56 AM 66.0 °F - 55.0 °F 68% 30.01 in 10.0 mi SSW 10.4 mph - N/A   Scattered Clouds
7:56 AM 69.1 °F - 55.9 °F 63% 30.04 in 10.0 mi SSW 11.5 mph - N/A   Scattered Clouds
8:56 AM 72.0 °F - 57.9 °F 61% 30.05 in 10.0 mi SSW 12.7 mph - N/A   Mostly Cloudy
9:56 AM 73.9 °F - 59.0 °F 59% 30.05 in 10.0 mi SSW 17.3 mph 21.9 mph N/A   Scattered Clouds
10:56 AM 78.1 °F - 61.0 °F 56% 30.04 in 10.0 mi SSW 17.3 mph 25.3 mph N/A   Scattered Clouds
11:56 AM 79.0 °F - 61.0 °F 54% 30.03 in 10.0 mi SW 16.1 mph 27.6 mph N/A   Partly Cloudy
12:56 PM 81.0 °F 81.9 °F 62.1 °F 52% 30.02 in 10.0 mi SSW 13.8 mph 25.3 mph N/A   Scattered Clouds
1:56 PM 82.9 °F 84.0 °F 63.0 °F 51% 30.01 in 10.0 mi SW 18.4 mph 23.0 mph N/A   Scattered Clouds
2:56 PM 82.9 °F 83.7 °F 62.1 °F 49% 30.00 in 10.0 mi South 20.7 mph 28.8 mph N/A   Mostly Cloudy
3:56 PM 84.9 °F 84.2 °F 57.9 °F 40% 29.97 in 10.0 mi SSW 20.7 mph 27.6 mph N/A   Scattered Clouds
4:56 PM 84.9 °F 84.4 °F 59.0 °F 41% 29.95 in 10.0 mi SSW 15.0 mph 23.0 mph N/A   Partly Cloudy
5:56 PM 84.0 °F 83.5 °F 57.9 °F 41% 29.96 in 10.0 mi SSW 19.6 mph 25.3 mph N/A   Partly Cloudy
6:56 PM 82.9 °F 82.4 °F 57.0 °F 41% 29.96 in 10.0 mi SSW 20.7 mph 26.5 mph N/A   Partly Cloudy
7:56 PM 81.0 °F 81.0 °F 57.0 °F 44% 29.99 in 10.0 mi SW 13.8 mph - N/A   Scattered Clouds
8:56 PM 79.0 °F - 55.0 °F 44% 29.99 in 10.0 mi SSW 10.4 mph - N/A   Mostly Cloudy
9:56 PM 77.0 °F - 54.0 °F 45% 30.00 in 10.0 mi SSW 10.4 mph - N/A   Mostly Cloudy
10:56 PM 75.0 °F - 51.1 °F 43% 30.01 in 10.0 mi SSW 10.4 mph - N/A   Mostly Cloudy
11:56 PM 73.9 °F - 51.1 °F 45% 29.99 in 10.0 mi SSW 10.4 mph - N/A   Mostly Cloudy